[[{"header":{"parameterUnit":"m.s-1","parameterCategory":1,"la1":30.2991,"la2":30.254,"lo1":-89.0895,"lo2":-89.0444,"dy":0.0017,"dx":0.0017,"nx":28,"ny":28,"refTime":"2025-06-08T09:00:00:Z","depth":0,"parameterNumber":2,"parameterNumberName":"U-component_of_WINDS"},"data":[0,0,0,0,0,0,0,0,0,0,0,0,0,0,0,0,0,0,0,0,0,0,0,0,0,0,0,0,0,0,0,0,0,0,0,0,0,0,0,0,0,0,0,0,0,0,0,0,0,0,0,0,0,0,0,0,0,0,4.0827,4.0828,0,4.093,4.0931,4.0932,4.0914,4.0912,4.091,4.0908,4.1013,4.1017,4.1022,0,0,0,0,0,0,0,0,0,0,0,0,0,4.0611,4.0615,4.0827,4.0828,4.0829,4.093,4.0931,4.0933,4.0914,4.0912,4.091,4.0908,4.1011,4.1017,4.1022,0,0,0,0,0,0,0,0,0,0,0,0,0,4.0708,4.0616,4.0827,4.0832,4.0834,4.093,4.0931,4.0933,4.0915,4.0912,4.0909,4.0907,4.101,4.1016,4.1023,4.1119,0,0,4.1043,4.1046,0,0,0,0,0,0,0,0,4.0703,4.0716,4.083,4.0832,4.0834,4.0906,4.0893,4.0995,4.0915,4.0884,4.0908,4.0905,4.098,4.0989,4.1014,4.1124,4.1128,4.1044,4.1048,4.1051,4.1053,0,0,0,0,0,0,0,4.0696,4.0712,4.0868,4.0832,4.0834,4.0829,4.084,4.0913,4.0946,4.0886,4.0885,4.0898,4.098,4.1008,4.1016,4.113,4.1044,4.105,4.1054,4.1057,4.1321,4.1324,0,0,0,0,0,0,4.0688,4.0706,4.0864,4.0871,4.076,4.0835,4.0847,4.0886,4.0945,4.0951,4.09,4.0897,4.0997,4.1008,4.102,4.1134,4.1051,4.1057,4.1061,4.1318,4.1321,4.1325,0,0,0,0,0,0,4.0683,4.0702,4.086,4.0788,4.0808,4.0842,4.0885,4.0889,4.0917,4.0955,4.0961,4.0922,4.0996,4.101,4.1094,4.1137,4.106,4.1066,4.1314,4.1319,4.1323,4.1364,0,0,0,0,0,0,4.0677,4.0701,4.0738,4.0789,4.0812,4.0933,4.0888,4.0893,4.0928,4.0925,4.0977,4.0984,4.0995,4.1084,4.1101,4.1145,4.1072,4.1311,4.1316,4.1322,4.1359,4.1369,4.1378,0,0,0,0,0,4.067,4.0746,4.074,4.076,4.086,4.0936,4.0949,4.096,4.0932,4.0969,4.0994,4.0982,4.113,4.1093,4.1111,4.1158,4.1308,4.1315,4.1321,4.1354,4.1367,4.1378,0,0,0,0,0,0,4.0699,4.0753,4.0747,4.0843,4.0885,4.0933,4.098,4.0974,4.1025,4.1019,4.1031,4.1043,4.1127,4.1152,4.1109,4.1253,4.1215,4.1226,4.1234,4.1246,4.1256,4.1247,4.1077,0,0,0,0,0,4.0717,4.0775,4.0819,4.0898,4.092,4.0947,4.098,4.0985,4.103,4.1047,4.1078,4.1121,4.1176,4.1213,4.1267,4.1363,4.1372,4.1404,4.1414,4.1422,4.143,4.1479,4.1493,4.1347,4.1347,4.1347,0,0,4.0754,4.079,4.0826,4.0905,4.0939,4.0997,4.0962,4.1026,4.1069,4.1057,4.1137,4.1161,4.1209,4.1298,4.1339,4.1321,4.1473,4.143,4.1436,4.144,4.1488,4.1502,4.1514,4.1351,4.1351,4.135,0,0,4.085,4.0885,4.0954,4.0988,4.1039,4.1056,4.1072,4.1121,4.1136,4.1217,4.1208,4.126,4.1357,4.1391,4.142,4.1528,4.1518,4.1546,4.1595,4.1643,4.1655,4.1665,4.1701,4.1714,4.1555,4.1555,4.1555,0,4.0889,4.0978,4.099,4.1054,4.1088,4.108,4.1149,4.1181,4.1247,4.127,4.1249,4.1369,4.1402,4.1497,4.1523,4.1549,4.1566,4.1539,4.1653,4.1663,4.1673,4.1706,4.172,4.1558,4.1557,4.1557,4.1557,0,4.1021,4.1083,4.1133,4.1196,4.1236,4.1302,4.1323,4.1362,4.1363,4.1382,4.1463,4.1501,4.1561,4.1585,4.1588,4.1681,4.1667,4.165,4.1611,4.1689,4.1721,4.1734,4.1562,4.1561,4.156,4.1559,0,0,4.1138,4.1207,4.1225,4.1252,4.1307,4.1355,4.142,4.1479,4.151,4.1556,4.1609,4.1691,4.1674,4.1708,4.1715,4.1758,4.1837,4.1734,4.1735,4.1749,4.1938,4.1948,4.1963,4.1831,4.1834,4.1836,4.1932,0,4.1237,4.1353,4.1365,4.1467,4.1523,4.1516,4.1572,4.1612,4.1631,4.168,4.1701,4.1757,4.1733,4.1753,4.1795,4.1818,4.1874,4.1812,4.1879,4.1881,4.1864,4.1981,4.1993,4.2082,4.1945,4.1948,4.1949,0,4.1368,4.1417,4.1525,4.157,4.1594,4.1645,4.1698,4.1746,4.179,4.1801,4.1838,4.1838,4.1904,4.1865,4.1954,4.1911,4.1939,4.1955,4.1958,4.1963,4.1918,4.1985,4.2111,4.2123,4.197,4.1968,4.1967,0,4.1438,4.1531,4.1607,4.1631,4.1687,4.1722,4.1747,4.1789,4.1822,4.187,4.1891,4.1946,4.1975,4.2016,4.203,4.2001,4.2118,4.208,4.2126,4.2126,4.2149,4.2147,4.2278,4.2173,4.2172,4.2172,4.2172,0,4.1546,4.1611,4.1639,4.1685,4.1758,4.1771,4.1842,4.1865,4.1902,4.1951,4.195,4.1996,4.2013,4.2062,4.2074,4.2144,4.2158,4.2167,4.2169,4.2166,4.2164,4.2182,4.2175,4.2176,4.2175,4.2174,4.2174,0,4.1636,4.1657,4.1739,4.1785,4.1798,4.1849,4.1888,4.1932,4.195,4.2013,4.2028,4.2057,4.2114,4.2133,4.2203,4.2211,4.2291,4.229,4.2276,4.2276,4.2319,4.2314,4.2465,4.2484,4.2368,4.237,4.237,0,4.1701,4.1751,4.1803,4.1836,4.1862,4.1915,4.195,4.1965,4.2,4.2053,4.209,4.2147,4.2193,4.2284,4.2311,4.2363,4.236,4.241,4.2368,4.2362,4.2357,4.2353,4.2357,4.2417,4.2418,4.2419,4.242,0,4.1814,4.1822,4.1872,4.1926,4.1967,4.201,4.2051,4.2078,4.2099,4.2139,4.2197,4.2233,4.2303,4.2358,4.2412,4.2436,4.243,4.2433,4.2446,4.2441,4.243,4.2433,4.2294,4.2429,4.2428,4.2427,4.2427,4.2426,4.1892,4.1935,4.1977,4.2032,4.2065,4.2103,4.2146,4.217,4.2219,4.2277,4.2283,4.2345,4.2386,4.2457,4.2484,4.2532,4.2518,4.2537,4.2542,4.2545,4.2547,4.2425,4.2542,4.2542,4.2542,4.2541,4.2541,0,4.2002,4.2029,4.208,4.2137,4.218,4.2173,4.2217,4.2253,4.2308,4.2347,4.2392,4.2458,4.2511,4.2542,4.2595,4.2627,4.2626,4.264,4.2636,4.2641,4.2558,4.254,4.264,4.264,4.264,4.264,4.264,4.264,4.2064,4.2136,4.2149,4.2236,4.2262,4.2323,4.2349,4.2383,4.2414,4.2487,4.2532,4.2552,4.2587,4.2642,4.269,4.2698,4.2716,4.2731,4.2737,4.2658,4.2648,4.2638,4.2621,4.2736,4.2736,4.2816,4.2816,4.2817]},{"header":{"parameterUnit":"m.s-1","parameterCategory":1,"la1":30.2991,"la2":30.254,"lo1":-89.0895,"lo2":-89.0444,"dy":0.0017,"dx":0.0017,"nx":28,"ny":28,"refTime":"2025-06-08T09:00:00:Z","depth":0,"parameterNumber":3,"parameterNumberName":"V-component_of_WINDS"},"data":[0,0,0,0,0,0,0,0,0,0,0,0,0,0,0,0,0,0,0,0,0,0,0,0,0,0,0,0,0,0,0,0,0,0,0,0,0,0,0,0,0,0,0,0,0,0,0,0,0,0,0,0,0,0,0,0,0,0,2.7666,2.7667,0,2.7778,2.7779,2.778,2.7786,2.7785,2.7783,2.7782,2.7896,2.79,2.7905,0,0,0,0,0,0,0,0,0,0,0,0,0,2.7456,2.7459,2.7666,2.7667,2.7669,2.7778,2.7779,2.7781,2.7786,2.7784,2.7783,2.7781,2.7895,2.79,2.7905,0,0,0,0,0,0,0,0,0,0,0,0,0,2.7555,2.7461,2.7665,2.7684,2.7687,2.7777,2.7779,2.7781,2.7786,2.7784,2.7782,2.7781,2.7893,2.7899,2.7906,2.7985,0,0,2.7925,2.7928,0,0,0,0,0,0,0,0,2.755,2.7563,2.768,2.7683,2.7687,2.7766,2.7747,2.7849,2.7787,2.7749,2.7782,2.778,2.7854,2.7864,2.7889,2.799,2.7995,2.7926,2.793,2.7932,2.7934,0,0,0,0,0,0,0,2.7543,2.7558,2.771,2.7682,2.7686,2.7687,2.7699,2.7766,2.7811,2.7752,2.7753,2.7766,2.7856,2.7883,2.7892,2.7996,2.7926,2.7931,2.7935,2.7938,2.8168,2.817,0,0,0,0,0,0,2.7532,2.7552,2.7707,2.7713,2.7612,2.7692,2.7706,2.7742,2.7811,2.7819,2.7767,2.7766,2.7873,2.7884,2.7896,2.7994,2.7932,2.7938,2.7942,2.8166,2.8168,2.8171,0,0,0,0,0,0,2.7528,2.7546,2.7702,2.7633,2.7653,2.7698,2.7739,2.7746,2.7773,2.7822,2.783,2.7787,2.7872,2.7887,2.7963,2.7997,2.7941,2.7947,2.8163,2.8166,2.817,2.8189,0,0,0,0,0,0,2.7522,2.7544,2.7575,2.7634,2.7657,2.7767,2.7741,2.7749,2.7784,2.7783,2.7843,2.7851,2.7872,2.7953,2.7969,2.8005,2.7952,2.816,2.8164,2.8168,2.8185,2.8192,2.8198,0,0,0,0,0,2.7514,2.7576,2.7576,2.7595,2.7696,2.7769,2.7782,2.7805,2.7787,2.7818,2.785,2.7849,2.7991,2.7961,2.7979,2.8017,2.8158,2.8163,2.8168,2.8182,2.8191,2.8198,0,0,0,0,0,0,2.7519,2.7584,2.7585,2.7668,2.7713,2.777,2.781,2.7813,2.7865,2.7862,2.7887,2.7901,2.7976,2.8004,2.7969,2.8097,2.8072,2.8081,2.8077,2.8085,2.8092,2.8084,2.7957,0,0,0,0,0,2.753,2.7584,2.7637,2.7705,2.7728,2.7765,2.7797,2.7811,2.7859,2.7878,2.7915,2.7961,2.8016,2.8052,2.8105,2.8189,2.8202,2.8224,2.8231,2.8236,2.8244,2.829,2.8301,2.8188,2.8187,2.8187,0,0,2.7553,2.7595,2.7627,2.7707,2.7744,2.7799,2.7781,2.784,2.7882,2.7887,2.7961,2.799,2.8043,2.8123,2.816,2.8149,2.8278,2.8242,2.8246,2.8251,2.8297,2.8307,2.8317,2.8191,2.819,2.819,0,0,2.7623,2.766,2.7721,2.7758,2.7814,2.7838,2.7852,2.7909,2.7928,2.8003,2.8008,2.8057,2.8152,2.819,2.8221,2.8305,2.8307,2.8322,2.8357,2.8402,2.8411,2.8419,2.845,2.8461,2.8329,2.8329,2.8329,0,2.7645,2.7729,2.7751,2.7811,2.7846,2.7853,2.7915,2.795,2.802,2.8044,2.803,2.8149,2.8185,2.8274,2.8295,2.832,2.8337,2.8316,2.8408,2.8416,2.8424,2.8454,2.8465,2.8331,2.8331,2.833,2.833,0,2.7753,2.7811,2.7853,2.7921,2.7961,2.8021,2.8053,2.809,2.81,2.8125,2.8201,2.8245,2.8308,2.8329,2.8339,2.842,2.8412,2.8402,2.8378,2.8436,2.8464,2.8476,2.8333,2.8332,2.8332,2.8332,0,0,2.7831,2.791,2.7926,2.7957,2.8018,2.8064,2.8124,2.8185,2.8217,2.8265,2.8317,2.8396,2.8388,2.8424,2.8438,2.8477,2.8542,2.8464,2.8465,2.8478,2.8635,2.8642,2.8655,2.8543,2.8545,2.8547,2.863,0,2.7909,2.8017,2.8039,2.8133,2.8187,2.8194,2.8247,2.829,2.8316,2.8365,2.8393,2.8449,2.8434,2.8456,2.8495,2.8526,2.8574,2.852,2.8592,2.8594,2.858,2.8669,2.8677,2.8754,2.8642,2.8643,2.8645,0,2.8015,2.8066,2.8165,2.822,2.8243,2.829,2.8348,2.8395,2.8445,2.846,2.85,2.851,2.8573,2.8544,2.8632,2.8594,2.8625,2.8644,2.8648,2.8656,2.8624,2.8681,2.8779,2.8791,2.8662,2.8661,2.866,0,2.8063,2.8156,2.8228,2.8254,2.8319,2.8352,2.8381,2.8428,2.8464,2.8514,2.8537,2.8594,2.8626,2.8669,2.8694,2.8671,2.878,2.8753,2.8795,2.8795,2.8819,2.8817,2.8924,2.8836,2.8836,2.8836,2.8836,0,2.8149,2.8209,2.825,2.8294,2.8363,2.8387,2.8453,2.8482,2.8524,2.8573,2.8582,2.8629,2.8658,2.8709,2.8728,2.8798,2.8812,2.8827,2.8831,2.8827,2.8825,2.8848,2.8844,2.8839,2.8838,2.8838,2.8837,0,2.8214,2.8244,2.8323,2.8378,2.8393,2.8441,2.8489,2.8532,2.8557,2.862,2.8636,2.8675,2.8735,2.8764,2.8838,2.8851,2.8931,2.8931,2.8914,2.8916,2.8957,2.8953,2.9083,2.9102,2.9001,2.9002,2.9002,0,2.8268,2.8315,2.8375,2.8409,2.8439,2.8493,2.853,2.8555,2.8592,2.8652,2.8688,2.8748,2.8798,2.8893,2.8928,2.8985,2.8988,2.903,2.8997,2.8991,2.899,2.8987,2.8993,2.9036,2.9037,2.9038,2.9038,0,2.8359,2.8372,2.8424,2.8481,2.8524,2.8571,2.8616,2.8643,2.8676,2.8717,2.8779,2.8818,2.8893,2.8954,2.9013,2.9042,2.9046,2.9048,2.9061,2.9057,2.9046,2.9054,2.8932,2.9045,2.9045,2.9044,2.9044,2.9043,2.8422,2.8464,2.8513,2.8571,2.8607,2.865,2.8693,2.8724,2.8775,2.884,2.8851,2.8916,2.8964,2.9044,2.9076,2.9127,2.9118,2.9136,2.9141,2.9146,2.9148,2.9037,2.9138,2.9138,2.9138,2.9137,2.9137,0,2.8515,2.8546,2.8599,2.8663,2.8708,2.8707,2.8758,2.8796,2.8853,2.8898,2.8947,2.9018,2.9076,2.9115,2.9174,2.9208,2.9211,2.9223,2.9221,2.9228,2.9153,2.9136,2.9219,2.9219,2.9219,2.9219,2.9219,2.9219,2.8568,2.864,2.8658,2.8748,2.8779,2.8844,2.8873,2.8912,2.8948,2.9026,2.9075,2.91,2.9143,2.9205,2.9258,2.9268,2.929,2.9302,2.9312,2.9241,2.9233,2.9225,2.921,2.9306,2.9306,2.9383,2.9383,2.9384]}]]